{"data":{"norad_id":69433,"intl_designator":"2026-126P","name":"STARLINK-37872","alt_names":[],"object_type":"PAYLOAD","status":"ACTIVE","operator":null,"country":"US","launch_date":"2026-06-07","launch_site_code":"AFWTR","launch_vehicle":null,"mission":null,"orbit_class":"UNKNOWN","rcs_meters":null,"size_class":null,"mass_kg":null,"dimensions":null,"purposes":["comms"],"wikipedia_slug":null,"has_3d_model":false,"image_url":null,"decayed_at":null,"tle_current":{"epoch":"2026-09-18T20:56:25.708128Z","epoch_age_seconds":167342,"freshness":"FRESH","line1":"1 69433U 26126P   26261.87251977  .00016731  00000+0  51941-3 0  9995","line2":"2 69433  97.2840 123.1106 0002063  91.7706 268.3773 15.33444619 17275","mean_motion":15.33444619,"eccentricity":0.0002063,"inclination_deg":97.284,"raan_deg":123.1106,"arg_perigee_deg":91.7706,"mean_anomaly_deg":268.3773,"bstar":0.00051941,"rev_number":1727,"period_min":93.906227988792,"perigee_km":464.13245661246,"apogee_km":466.95615952016,"semimajor_km":6843.6813080663,"source":"CELESTRAK","updated_at":"2026-09-20T09:00:44.196830Z"}}}